When you browse on this site, cookies collect data to enhance your experience and personalize the content and advertising you see.
Visit our Privacy Policy to learn more. By continuing to use the site, you agree to this use of cookies and data.
  • Em Portugal
  • Lista de países
  • Para 7 dias
  • Temperatura da água
  • Mapas de satélite
  • Mapa do tempo
  • Widgets de tempo
  • user-avatar
    Iniciar Sessão

    Previsão horária em Zborov

    Hoje, 24 Junho, Segunda-feira

    Tempo Temperatura Precipitação Vento Pressão Humidade
    00:00 +15°C° 0 mm 4 m/s 753 mmHg 94%
    01:00 +15°C° 0 mm 4 m/s 753 mmHg 93%
    02:00 +15°C° 0 mm 4 m/s 753 mmHg 92%
    03:00 +15°C° 0 mm 4 m/s 753 mmHg 93%
    04:00 +15°C° 0 mm 4 m/s 753 mmHg 93%
    05:00 +15°C° 0 mm 4 m/s 753 mmHg 93%
    06:00 +17°C° 0 mm 4 m/s 754 mmHg 87%
    07:00 +18°C° 0 mm 4 m/s 754 mmHg 82%
    08:00 +20°C° 0 mm 4 m/s 755 mmHg 76%
    09:00 +21°C° 0 mm 5 m/s 755 mmHg 72%
    10:00 +22°C° 0 mm 5 m/s 755 mmHg 67%
    11:00 +23°C° 0 mm 5 m/s 755 mmHg 63%
    12:00 +23°C° 0 mm 5 m/s 755 mmHg 62%
    13:00 +25°C° 0 mm 5 m/s 755 mmHg 61%
    14:00 +25°C° 0 mm 5 m/s 755 mmHg 60%
    15:00 +23°C° 0 mm 5 m/s 755 mmHg 62%
    16:00 +23°C° 0 mm 5 m/s 755 mmHg 64%
    17:00 +23°C° 0 mm 5 m/s 755 mmHg 66%
    18:00 +21°C° 0 mm 4 m/s 756 mmHg 71%
    19:00 +20°C° 0 mm 3 m/s 756 mmHg 76%
    20:00 +18°C° 0 mm 2 m/s 756 mmHg 82%
    21:00 +18°C° 0 mm 3 m/s 756 mmHg 83%
    22:00 +17°C° 0 mm 3 m/s 756 mmHg 85%
    23:00 +16°C° 0 mm 3 m/s 757 mmHg 87%

    Amanhã, 25 Junho, Terça-feira

    Tempo Temperatura Precipitação Vento Pressão Humidade
    00:00 +14°C° 0 mm 3 m/s 757 mmHg 88%
    01:00 +14°C° 0 mm 3 m/s 757 mmHg 88%
    02:00 +13°C° 0 mm 3 m/s 758 mmHg 89%
    03:00 +13°C° 0 mm 3 m/s 758 mmHg 88%
    04:00 +13°C° 0 mm 3 m/s 758 mmHg 86%
    05:00 +13°C° 0 mm 3 m/s 757 mmHg 85%
    06:00 +16°C° 0 mm 3 m/s 758 mmHg 81%
    07:00 +18°C° 0 mm 3 m/s 758 mmHg 76%
    08:00 +20°C° 0 mm 3 m/s 759 mmHg 72%
    09:00 +21°C° 0 mm 3 m/s 759 mmHg 68%
    10:00 +22°C° 0 mm 3 m/s 759 mmHg 63%
    11:00 +23°C° 0 mm 4 m/s 759 mmHg 59%
    12:00 +25°C° 0 mm 3 m/s 759 mmHg 58%
    13:00 +25°C° 0 mm 3 m/s 759 mmHg 57%
    14:00 +25°C° 0 mm 3 m/s 759 mmHg 56%
    15:00 +25°C° 0 mm 3 m/s 759 mmHg 58%
    16:00 +24°C° 0 mm 3 m/s 758 mmHg 60%
    17:00 +24°C° 0 mm 3 m/s 758 mmHg 62%
    18:00 +22°C° 0 mm 3 m/s 758 mmHg 67%
    19:00 +20°C° 0 mm 2 m/s 758 mmHg 73%
    20:00 +18°C° 0 mm 2 m/s 758 mmHg 78%
    21:00 +17°C° 0 mm 2 m/s 758 mmHg 80%
    22:00 +18°C° 0 mm 1 m/s 758 mmHg 81%
    23:00 +16°C° 0 mm 1 m/s 758 mmHg 83%

    Depois de amanhã, 26 Junho, Quarta-feira

    Tempo Temperatura Precipitação Vento Pressão Humidade
    00:00 +15°C° 0 mm 1 m/s 758 mmHg 84%
    01:00 +14°C° 0 mm 0 m/s 758 mmHg 85%
    02:00 +13°C° 0 mm 0 m/s 758 mmHg 86%
    03:00 +14°C° 0 mm 0 m/s 758 mmHg 85%
    04:00 +14°C° 0 mm 0 m/s 758 mmHg 84%
    05:00 +14°C° 0 mm 0 m/s 757 mmHg 83%
    06:00 +16°C° 0 mm 0 m/s 757 mmHg 78%
    07:00 +20°C° 0 mm 1 m/s 757 mmHg 73%
    08:00 +21°C° 0 mm 1 m/s 757 mmHg 68%
    09:00 +22°C° 0 mm 1 m/s 757 mmHg 64%
    10:00 +23°C° 0 mm 1 m/s 756 mmHg 60%
    11:00 +24°C° 0 mm 2 m/s 756 mmHg 55%
    12:00 +25°C° 0 mm 2 m/s 756 mmHg 54%
    13:00 +25°C° 0 mm 2 m/s 755 mmHg 53%
    14:00 +26°C° 0 mm 2 m/s 755 mmHg 52%
    15:00 +26°C° 0 mm 2 m/s 754 mmHg 55%
    16:00 +26°C° 0 mm 2 m/s 753 mmHg 58%
    17:00 +26°C° 0 mm 3 m/s 753 mmHg 60%
    18:00 +25°C° 0 mm 2 m/s 752 mmHg 66%
    19:00 +23°C° 0 mm 2 m/s 752 mmHg 72%
    20:00 +21°C° 0 mm 2 m/s 751 mmHg 77%
    21:00 +20°C° 0 mm 2 m/s 751 mmHg 79%
    22:00 +19°C° 0 mm 2 m/s 750 mmHg 82%
    23:00 +18°C° 0 mm 2 m/s 750 mmHg 84%

    27 Junho, Quinta-feira

    Tempo Temperatura Precipitação Vento Pressão Humidade
    00:00 +18°C° 0 mm 2 m/s 749 mmHg 85%
    01:00 +18°C° 0 mm 3 m/s 749 mmHg 86%
    02:00 +18°C° 0 mm 3 m/s 748 mmHg 88%
    03:00 +18°C° 0 mm 4 m/s 747 mmHg 88%
    04:00 +18°C° 0 mm 4 m/s 746 mmHg 87%
    05:00 +19°C° 0 mm 5 m/s 745 mmHg 87%
    06:00 +19°C° 1.2 mm 5 m/s 745 mmHg 88%
    07:00 +20°C° 1.2 mm 5 m/s 744 mmHg 88%
    08:00 +21°C° 1.2 mm 6 m/s 743 mmHg 89%
    09:00 +22°C° 0.5 mm 6 m/s 742 mmHg 89%
    10:00 +22°C° 0.5 mm 6 m/s 742 mmHg 88%
    11:00 +22°C° 0.5 mm 5 m/s 741 mmHg 88%
    12:00 +23°C° 0.5 mm 6 m/s 740 mmHg 83%
    13:00 +24°C° 0.5 mm 6 m/s 740 mmHg 79%
    14:00 +26°C° 0.5 mm 7 m/s 739 mmHg 75%
    15:00 +23°C° 0.7 mm 7 m/s 739 mmHg 77%
    16:00 +22°C° 0.7 mm 8 m/s 740 mmHg 80%
    17:00 +19°C° 0.7 mm 9 m/s 740 mmHg 83%
    18:00 +18°C° 0.1 mm 8 m/s 740 mmHg 83%
    19:00 +16°C° 0.1 mm 6 m/s 740 mmHg 82%
    20:00 +15°C° 0.1 mm 5 m/s 740 mmHg 82%
    21:00 +14°C° 0 mm 5 m/s 741 mmHg 80%
    22:00 +14°C° 0 mm 6 m/s 741 mmHg 79%
    23:00 +14°C° 0 mm 6 m/s 741 mmHg 77%

    28 Junho, Sexta-feira

    Tempo Temperatura Precipitação Vento Pressão Humidade
    00:00 +14°C° 0 mm 6 m/s 741 mmHg 75%
    01:00 +14°C° 0 mm 6 m/s 741 mmHg 74%
    02:00 +14°C° 0 mm 7 m/s 741 mmHg 72%
    03:00 +12°C° 0 mm 7 m/s 740 mmHg 74%
    04:00 +11°C° 0 mm 7 m/s 740 mmHg 77%
    05:00 +10°C° 0 mm 7 m/s 740 mmHg 79%
    06:00 +11°C° 0 mm 8 m/s 740 mmHg 77%
    07:00 +12°C° 0 mm 8 m/s 740 mmHg 75%
    08:00 +13°C° 0 mm 9 m/s 739 mmHg 73%
    09:00 +13°C° 0 mm 9 m/s 740 mmHg 72%
    10:00 +15°C° 0 mm 9 m/s 740 mmHg 71%
    11:00 +16°C° 0 mm 9 m/s 740 mmHg 70%
    12:00 +16°C° 0.3 mm 8 m/s 740 mmHg 70%
    13:00 +16°C° 0.3 mm 8 m/s 740 mmHg 70%
    14:00 +17°C° 0.3 mm 8 m/s 740 mmHg 70%
    15:00 +16°C° 0.3 mm 8 m/s 740 mmHg 72%
    16:00 +16°C° 0.3 mm 7 m/s 740 mmHg 73%
    17:00 +16°C° 0.3 mm 7 m/s 740 mmHg 75%
    18:00 +15°C° 0.1 mm 6 m/s 740 mmHg 75%
    19:00 +14°C° 0.1 mm 5 m/s 740 mmHg 75%
    20:00 +14°C° 0.1 mm 4 m/s 740 mmHg 75%
    21:00 +13°C° 0 mm 5 m/s 740 mmHg 74%
    22:00 +12°C° 0 mm 5 m/s 740 mmHg 73%
    23:00 +12°C° 0 mm 5 m/s 740 mmHg 72%

    29 Junho, Sábado

    Tempo Temperatura Precipitação Vento Pressão Humidade
    00:00 +12°C° 0 mm 5 m/s 740 mmHg 72%
    01:00 +10°C° 0 mm 5 m/s 739 mmHg 71%
    02:00 +10°C° 0 mm 6 m/s 739 mmHg 71%
    03:00 +10°C° 0 mm 6 m/s 739 mmHg 73%
    04:00 +9°C° 0 mm 7 m/s 739 mmHg 74%
    05:00 +9°C° 0 mm 7 m/s 739 mmHg 75%
    06:00 +9°C° 0 mm 7 m/s 739 mmHg 73%
    07:00 +10°C° 0 mm 8 m/s 739 mmHg 71%
    08:00 +10°C° 0 mm 8 m/s 739 mmHg 69%
    09:00 +10°C° 0 mm 8 m/s 739 mmHg 68%
    10:00 +10°C° 0 mm 8 m/s 740 mmHg 67%
    11:00 +10°C° 0 mm 8 m/s 740 mmHg 66%
    12:00 +10°C° 0.2 mm 8 m/s 740 mmHg 69%
    13:00 +11°C° 0.2 mm 7 m/s 740 mmHg 71%
    14:00 +11°C° 0.2 mm 6 m/s 740 mmHg 74%
    15:00 +10°C° 0.1 mm 6 m/s 740 mmHg 75%
    16:00 +10°C° 0.1 mm 6 m/s 740 mmHg 76%
    17:00 +10°C° 0.1 mm 6 m/s 740 mmHg 77%
    18:00 +10°C° 0.1 mm 6 m/s 740 mmHg 76%
    19:00 +10°C° 0.1 mm 7 m/s 740 mmHg 76%
    20:00 +10°C° 0.1 mm 7 m/s 740 mmHg 75%
    21:00 +10°C° 0 mm 7 m/s 740 mmHg 72%
    22:00 +10°C° 0 mm 7 m/s 740 mmHg 69%
    23:00 +10°C° 0 mm 7 m/s 740 mmHg 66%
    Mostrar mais